Content
SEND FEEDBACK

Daily
Averages
Monthly
Summary
United States of America

GLENDIVE, MONTANA


Home > North America > United States > Montana
Elevation: 2128 feet     Latitude: 47 07N     Longitude: 104 41W

WEATHER
 
SELECT A DAY
Number of Records: 80,641;   Date Range: 1/1/95 - 10/21/14
 
SHARE

PRINT THIS DATA

[ ← Previous Day ]
WEATHER ALMANAC - JANUARY 31, 2013
[ Next Day → ]
[ °C ]   °F
Weather ElementAverageHighLow
Temperature-5.1 °F10.4 °F (11:55 pm)-20.2 °F (6:55 am)
Dewpoint-12.6 °F5 °F (11:55 pm)-29.2 °F (6:35 am)
Humidity70.5 %100 % (7:15 am)55 % (12:55 pm)
Barometer30.18 in30.30 in (7:35 am)29.99 in (11:35 pm)
Wind Speed9.6 mph23 mph (12:55 am)
Weather ElementAverage
Visibility9.9 mi
Wind DirectionWSW (243.2 °)

Weather ElementTotal
Precipitation---
Heating Degree Days69.9 (Base 65)
Averaged from 60 records on January 31, 2013
WEATHER CONDITIONS BREAKOUT
WIND DIRECTION BREAKOUT
WEATHER BY HOUR - JANUARY 31, 2013
[ °C ]   °F
Local TimeTemperatureDewpointHumidityBarometerVisibilityWind DirectionWind SpeedGust SpeedPrecipitationEventsConditions
12:35 AM-7.6 °F-14.8 °F71 %30.12 in7.0 miNNW (340°)21.9 mphOvercast
12:55 AM-9.4 °F-18.4 °F65 %30.13 in8.0 miNNW (330°)23.0 mphOvercast
1:15 AM-9.4 °F-16.6 °F71 %30.15 in10.0 miNNW (330°)19.6 mphOvercast
1:35 AM-9.4 °F-16.6 °F71 %30.16 in10.0 miNNW (340°)11.5 mphOvercast
2:15 AM-11.2 °F-20.2 °F64 %30.18 in10.0 miNNW (330°)10.4 mphClear
2:55 AM-13.0 °F-20.2 °F70 %30.21 in10.0 miNorth (350°)10.4 mphClear
3:15 AM-13.0 °F-20.2 °F70 %30.21 in10.0 miNNW (340°)6.9 mphClear
3:35 AM-14.8 °F-22.0 °F70 %30.22 in10.0 miNNW (340°)11.5 mphClear
3:55 AM-14.8 °F-22.0 °F70 %30.23 in10.0 miNW (320°)4.6 mphClear
4:35 AM-16.6 °F-22.0 °F76 %30.24 in10.0 miNNW (330°)10.4 mphClear
4:55 AM-16.6 °F-23.8 °F70 %30.25 in10.0 miNNW (330°)8.1 mphClear
5:15 AM-16.6 °F-23.8 °F70 %30.25 in10.0 miNNW (330°)8.1 mphClear
5:55 AM-16.6 °F-23.8 °F70 %30.26 in10.0 miNNW (330°)5.8 mphClear
6:15 AM-18.4 °F-25.6 °F70 %30.26 in10.0 miNW (320°)6.9 mphClear
6:35 AM-18.4 °F-29.2 °F58 %30.26 in10.0 miNNW (330°)6.9 mphClear
6:55 AM-20.2 °F-27.4 °F69 %30.27 in10.0 miWNW (300°)6.9 mphClear
7:15 AM-18.4 °F-18.4 °F100 %30.28 in10.0 miWNW (300°)5.8 mphClear
7:35 AM-18.4 °F-27.4 °F63 %30.30 in10.0 miSW (220°)4.6 mphClear
7:55 AM-18.4 °F-25.6 °F70 %30.29 in10.0 miWNW (290°)4.6 mphClear
8:15 AM-16.6 °F-18.4 °F92 %30.30 in10.0 miCalmClear
8:35 AM-14.8 °F-22.0 °F70 %30.30 in10.0 miWest (270°)4.6 mphClear
9:55 AM-11.2 °F-18.4 °F70 %30.30 in10.0 miSW (230°)8.1 mphClear
10:15 AM-11.2 °F-18.4 °F70 %30.30 in10.0 miWest (260°)10.4 mphClear
10:35 AM-9.4 °F-16.6 °F71 %30.30 in10.0 miWSW (250°)10.4 mphClear
10:55 AM-9.4 °F-18.4 °F65 %30.30 in10.0 miWSW (240°)6.9 mphClear
11:15 AM-7.6 °F-16.6 °F65 %30.29 in10.0 miWSW (240°)8.1 mphClear
11:35 AM-5.8 °F-14.8 °F65 %30.28 in10.0 miSW (220°)8.1 mphClear
11:55 AM-5.8 °F-16.6 °F60 %30.28 in10.0 miSW (230°)6.9 mphClear
12:15 PM-4.0 °F-14.8 °F60 %30.27 in10.0 miSW (230°)8.1 mphClear
12:35 PM-4.0 °F-14.8 °F60 %30.25 in10.0 miSW (220°)6.9 mphClear
12:55 PM-2.2 °F-14.8 °F55 %30.23 in10.0 miSSW (210°)5.8 mphClear
1:15 PM-2.2 °F-13.0 °F60 %30.22 in10.0 miSW (230°)8.1 mphClear
1:35 PM-2.2 °F-11.2 °F66 %30.22 in10.0 miSW (230°)8.1 mphClear
1:55 PM-2.2 °F-9.4 °F71 %30.21 in10.0 miSSW (210°)9.2 mphClear
2:15 PM-2.2 °F-11.2 °F66 %30.19 in10.0 miSSW (210°)10.4 mphMostly Cloudy
2:35 PM-2.2 °F-11.2 °F66 %30.19 in10.0 miSSW (210°)12.7 mphMostly Cloudy
2:55 PM-0.4 °F-9.4 °F66 %30.18 in10.0 miSW (220°)9.2 mphOvercast
3:15 PM-0.4 °F-9.4 °F66 %30.19 in10.0 miSW (220°)9.2 mphOvercast
3:35 PM-0.4 °F-7.6 °F72 %30.18 in10.0 miSSW (210°)9.2 mphOvercast
3:55 PM-0.4 °F-7.6 °F72 %30.17 in10.0 miSSW (200°)8.1 mphOvercast
4:15 PM-0.4 °F-7.6 °F72 %30.16 in10.0 miSSW (200°)8.1 mphOvercast
4:35 PM-0.4 °F-7.6 °F72 %30.15 in10.0 miSouth (190°)8.1 mphOvercast
4:55 PM-0.4 °F-7.6 °F72 %30.15 in10.0 miSouth (190°)9.2 mphOvercast
5:15 PM1.4 °F-5.8 °F72 %30.14 in10.0 miSouth (190°)9.2 mphOvercast
5:35 PM1.4 °F-5.8 °F72 %30.11 in10.0 miSSW (200°)11.5 mphOvercast
6:15 PM1.4 °F-4.0 °F78 %30.11 in10.0 miSouth (190°)10.4 mphOvercast
6:35 PM3.2 °F-4.0 °F72 %30.10 in10.0 miSouth (190°)11.5 mphOvercast
6:55 PM3.2 °F-4.0 °F72 %30.09 in10.0 miSSW (200°)10.4 mphMostly Cloudy
7:15 PM3.2 °F-4.0 °F72 %30.08 in10.0 miSouth (190°)11.5 mphMostly Cloudy
7:35 PM3.2 °F-2.2 °F78 %30.07 in10.0 miSSW (200°)12.7 mphOvercast
7:55 PM5.0 °F-2.2 °F72 %30.07 in10.0 miSSW (210°)10.4 mphMostly Cloudy
8:15 PM5.0 °F-0.4 °F78 %30.06 in10.0 miSSW (210°)11.5 mphMostly Cloudy
8:35 PM6.8 °F-0.4 °F72 %30.05 in10.0 miSSW (200°)12.7 mphOvercast
8:55 PM6.8 °F-0.4 °F72 %30.05 in10.0 miSSW (200°)10.4 mphOvercast
9:15 PM6.8 °F-0.4 °F72 %30.04 in10.0 miSSW (200°)10.4 mphOvercast
9:35 PM6.8 °F1.4 °F79 %30.03 in10.0 miSSW (200°)13.8 mphOvercast
9:55 PM8.6 °F1.4 °F73 %30.02 in10.0 miSSW (200°)12.7 mphOvercast
10:15 PM8.6 °F1.4 °F73 %30.01 in10.0 miSSW (200°)15.0 mphMostly Cloudy
11:35 PM8.6 °F3.2 °F79 %29.99 in10.0 miSouth (190°)8.1 mphOvercast
11:55 PM10.4 °F5.0 °F79 %29.99 in10.0 miSSW (200°)11.5 mphScattered Clouds
Hourly data recorded from KGDV, located miles away from Glendive, Montana







STORIES FROM OUR PARTNERS